sat.trackr.live / text

‹ back to catalog

PRAETORIAN SDA_612

NORAD 65575 · 2025-203L

PAYLOAD ACTIVE UNKNOWN

§ Identity

Operator
Country
US
Launch date
2025-09-10
Launch site
AFWTR
Launch vehicle
Mass (kg)
RCS (m²)

Purposes: military

External: N2YO · Heavens-Above · Gunter

§ Orbital elements

Epoch: 2026-05-25T03:30:39.735072Z

Period
103.97 min
Inclination
81.3048°
Eccentricity
0.0008274
Mean motion
13.85035224 rev/d
Perigee alt
940.0 km
Apogee alt
952.1 km
Semi-major
7,324.2 km
B*
1.1680e-4
RAAN
31.8867°
Arg perigee
255.3376°
Mean anomaly
104.6864°
Rev number
3,552

§ Raw data

PRAETORIAN SDA_6121 65575U 25203L   26145.14629323  .00000144  00000+0  11680-3 0  99952 65575  81.3048  31.8867 0008274 255.3376 104.6864 13.85035224 35526

JSON: /api/v1/satellites/65575 · /tle

For live sub-satellite position, see the globe view (requires WebGL).

§ Visibility from observer

Set your observer location to see the next 7 days of passes ≥ 10°. The values pass through the URL so the page stays shareable.

No JS? Fill the form by hand. The geolocation button needs JavaScript.